Location: Vancouver
(49.2500°N, 123.1330°W)
Time: 03:11:03
(UTC-07:00)

ERS-2 - Visible Passes

Search period start: 29 July 2016 00:00
Search period end: 08 August 2016 00:00
Orbit: 506 x 510 km, 98.5° (Epoch: 28 July)

Date Brightness Start Highest point End Pass type
(mag) Time Alt. Az. Time Alt. Az. Time Alt. Az.
29 Jul 2.7 03:20:33 10° NNE 03:24:13 52° ESE 03:26:03 26° SSE visible
29 Jul 4.2 04:55:18 10° NNW 04:57:39 16° WNW 04:59:59 10° W visible
30 Jul 3.5 03:03:32 10° NNE 03:06:58 33° E 03:08:37 23° SE visible
30 Jul 3.7 04:37:37 10° N 04:40:37 23° WNW 04:43:27 11° WSW visible
31 Jul 4.1 02:46:42 10° NE 02:49:40 22° E 02:51:11 17° SE visible
31 Jul 3.1 04:20:08 10° N 04:23:32 34° WNW 04:26:01 16° SW visible
01 Aug 4.6 02:30:12 10° ENE 02:32:19 14° E 02:33:44 12° ESE visible
01 Aug 2.5 04:02:45 10° N 04:06:25 53° WNW 04:08:35 22° SW visible
02 Aug 2.1 03:45:30 10° NNE 03:49:15 85° WNW 03:51:08 28° SSW visible
03 Aug 2.5 03:28:20 10° NNE 03:32:03 60° ESE 03:33:42 30° S visible
03 Aug 4.3 05:03:19 10° NNW 05:05:24 15° WNW 05:07:30 10° W visible
04 Aug 3.3 03:11:16 10° NNE 03:14:47 37° E 03:16:14 26° SE visible
04 Aug 3.8 04:45:32 10° NNW 04:48:22 21° WNW 04:51:05 11° WSW visible
05 Aug 3.9 02:54:22 10° NE 02:57:29 24° E 02:58:47 20° SE visible
05 Aug 3.3 04:27:59 10° N 04:31:18 30° WNW 04:33:37 16° WSW visible
06 Aug 4.5 02:37:44 10° NE 02:40:08 16° E 02:41:20 14° ESE visible
06 Aug 2.6 04:10:34 10° N 04:14:11 46° WNW 04:16:10 23° SW visible
07 Aug 4.9 02:21:58 10° ENE 02:22:44 10° E 02:23:29 10° E visible
07 Aug 2.1 03:53:16 10° NNE 03:57:01 74° WNW 03:58:42 31° SSW visible
